Wind_Speed
36 36 35 43 39 29 30 26 24 22 11 10 14 24 28 29 29 28 26 21 23 22 28 27 26 22 25 25 28 29 33 31 31 32 33 32 35 36 36 32 34 36 36
40 38 29 30 30 29 23 19 12 6 7 19 22 20 25 36 33 31 28 26 29 33 30 31 27 27 28 33 37 38 36 37 38 39 32 33 34 35 36 39 41 42 45
61 50 27 31 29 26 24 13 6 3 7 30 44 43 36 28 36 40 38 33 32 35 35 34 37 37 34 38 42 44 47 40 42 38 38 38 39 40 35 36 42 44 44
73 58 35 28 29 26 19 16 3 15 5 44 43 47 45 40 38 40 45 39 35 40 40 41 43 46 51 50 50 48 48 45 44 44 43 44 45 45 40 35 35 42 41
67 66 47 28 29 32 31 21 19 20 24 38 46 50 53 45 44 46 48 53 53 50 49 52 50 47 45 49 53 53 54 48 46 52 58 57 48 46 45 39 37 42 46
63 59 62 47 39 42 38 32 37 33 39 54 59 58 56 54 49 46 50 53 57 58 51 60 61 55 55 50 55 58 57 54 49 52 57 57 48 44 48 49 51 52 49
63 70 71 61 54 52 42 39 43 47 56 58 55 56 60 61 56 51 51 54 53 52 54 55 59 61 65 66 66 68 62 62 63 53 57 62 61 63 60 60 61 64 63
63 65 71 65 65 67 64 54 41 42 43 60 64 63 67 66 64 50 51 52 50 38 40 45 55 62 67 73 76 77 75 75 66 62 59 62 61 61 65 61 63 63 67
63 61 63 63 70 72 74 66 49 42 44 45 57 62 68 63 63 56 51 48 47 44 46 38 42 48 64 70 73 79 83 78 75 77 73 67 70 70 72 74 74 73 74
52 52 61 71 70 72 69 65 57 49 50 47 46 51 56 63 67 67 62 58 55 55 50 49 49 57 54 65 75 79 82 79 80 81 82 84 85 87 86 85 84 83 87
51 49 55 65 71 74 65 65 65 54 53 51 53 53 54 51 60 54 63 67 72 62 57 50 61 68 54 56 61 75 83 90 88 86 83 84 86 87 89 90 90 89 89
56 49 54 62 69 76 72 66 68 65 64 59 57 52 46 49 53 52 55 63 64 68 52 51 38 33 35 41 47 51 67 79 84 81 81 95 100 99 98 98 99 98 96
69 63 54 59 65 72 76 66 65 60 66 59 57 60 57 60 59 56 56 63 67 64 68 52 45 39 43 43 36 37 44 48 56 65 76 78 82 85 98 99 101 103 104
70 69 58 58 62 64 66 67 65 57 63 68 62 61 60 64 62 60 61 65 70 73 69 59 49 65 64 50 56 63 64 69 73 84 86 86 83 83 83 86 96 99 98
57 62 55 55 50 63 60 62 63 65 63 64 67 67 66 65 63 63 67 68 71 69 74 71 69 81 80 58 69 70 76 81 89 102 104 96 96 85 84 86 84 88 88
40 46 50 39 56 62 59 55 58 62 63 59 59 57 60 59 65 65 71 77 75 70 80 76 74 81 79 80 85 89 92 95 107 110 102 95 92 89 91 91 92 90 91
27 34 44 56 62 61 67 66 52 66 69 70 69 62 67 73 76 77 74 76 76 82 85 89 88 88 92 96 95 98 105 111 117 107 89 83 85 91 96 98 96 95 95
29 37 42 41 45 60 64 62 68 67 70 70 70 76 75 73 76 78 74 76 79 80 88 90 91 88 93 92 103 108 113 120 100 86 77 74 73 71 71 78 86 94 100
20 25 37 43 47 51 54 60 71 69 66 64 66 70 72 76 78 76 78 82 83 81 86 91 95 104 99 105 105 117 115 99 82 74 69 63 60 59 59 61 65 72 78
21 19 19 33 39 42 46 51 59 58 64 66 64 68 66 71 76 75 78 77 80 88 93 102 102 102 100 105 109 108 107 83 71 65 60 57 53 50 48 48 51 55 60
28 29 32 34 38 43 43 48 57 64 61 61 64 67 69 73 78 82 85 86 90 96 102 99 90 98 107 114 114 104 77 65 59 54 51 51 48 43 40 38 39 42 45
43 47 46 49 51 51 53 56 60 63 65 68 71 76 79 80 83 84 87 95 99 98 95 95 103 108 114 114 88 65 57 52 49 47 46 44 41 39 37 35 35 35 35
59 58 54 54 58 60 62 63 65 70 74 76 78 81 85 88 90 90 90 93 100 101 103 107 113 116 88 62 57 50 45 43 41 39 39 38 37 35 34 35 36 36 36
66 65 67 68 67 68 69 68 71 73 78 81 85 88 92 92 87 88 93 94 99 102 106 116 101 78 52 49 42 39 37 37 36 34 33 33 34 35 36 36 36 35 36
71 71 73 74 73 74 73 75 80 83 81 76 78 83 88 92 93 91 100 103 101 108 106 81 52 46 37 33 32 33 33 30 30 32 33 35 35 36 37 37 37 37 37
62 66 68 70 71 74 77 79 84 80 82 89 96 102 102 102 99 95 99 100 105 97 58 44 36 27 26 25 24 27 30 33 34 34 35 36 37 39 40 40 39 40 39
Wind_Direction
295 285 281 270 273 282 293 282 270 279 267 279 282 247 250 241 234 228 220 219 228 233 241 243 249 255 261 261 271 273 277 269 266 268 267 269 270 270 272 277 284 277 274
307 312 294 272 272 280 285 282 274 245 307 301 298 253 259 260 250 244 239 244 242 250 251 251 254 268 266 264 270 260 267 271 273 267 256 255 255 258 268 275 277 277 274
296 298 275 246 249 248 262 252 142 300 345 307 285 278 279 268 269 261 253 253 250 248 258 253 269 266 269 266 261 284 266 271 277 262 254 261 266 266 264 271 279 276 273
288 282 274 250 240 221 207 204 182 228 239 250 268 277 278 276 272 274 253 253 254 258 257 259 272 272 264 272 270 275 270 279 273 259 263 262 260 264 261 269 272 265 270
275 272 274 229 182 171 170 167 188 209 237 240 259 258 271 274 276 275 268 264 267 273 262 260 267 270 262 267 267 267 268 271 271 266 267 268 263 264 261 259 261 265 264
261 266 264 234 218 185 188 192 188 204 228 256 255 255 255 264 269 275 274 276 276 274 277 267 263 264 267 273 268 269 269 267 269 270 264 263 260 260 259 256 257 264 268
264 264 263 260 217 201 202 223 222 238 252 233 234 241 252 260 261 272 273 274 274 277 280 279 272 265 263 270 269 273 270 268 272 265 265 260 255 260 261 263 268 270 269
264 259 258 251 221 215 225 238 246 253 244 232 245 244 251 257 258 271 276 267 270 276 281 288 283 278 272 268 271 273 274 274 272 267 264 264 263 267 266 266 270 273 273
261 256 253 244 233 236 237 239 238 247 249 253 248 252 251 257 260 261 270 271 264 270 281 281 294 284 274 270 270 271 271 267 265 267 263 258 260 263 267 269 268 270 274
267 258 248 245 241 239 236 234 237 242 247 251 256 253 253 256 259 262 268 268 277 269 285 288 299 297 284 267 263 261 260 262 264 264 263 262 263 263 263 263 263 266 268
267 261 248 243 239 240 235 234 237 242 254 257 259 264 261 262 261 264 268 267 271 284 279 295 289 303 283 279 268 262 264 263 262 264 266 267 268 266 265 266 267 265 266
277 264 251 243 239 240 237 241 243 247 255 259 259 261 257 258 266 269 272 267 275 274 286 300 307 318 301 289 284 282 268 264 263 264 275 272 270 272 267 267 267 266 265
277 271 253 244 240 240 238 241 241 246 250 253 257 257 260 264 268 273 273 269 275 278 285 282 292 305 304 299 297 305 301 293 292 279 290 293 282 273 263 263 264 264 262
264 259 258 243 237 237 233 233 235 247 251 251 256 259 262 266 270 274 278 275 276 284 288 287 275 291 299 293 287 295 299 294 300 306 296 296 291 283 280 274 268 265 266
253 248 243 246 241 239 236 238 242 242 253 251 253 258 263 268 272 279 283 284 283 282 288 291 287 291 294 293 297 293 301 305 301 308 305 294 288 281 276 270 270 266 266
246 240 234 224 235 243 232 248 243 246 250 252 253 260 263 269 274 279 280 282 282 285 294 290 286 294 298 300 303 304 304 303 307 305 302 290 284 277 272 269 266 265 263
239 227 227 224 230 235 234 244 252 250 253 254 255 262 269 273 277 279 277 284 290 287 288 287 292 298 296 303 302 305 307 309 309 305 294 284 275 271 268 263 259 257 257
231 217 209 212 220 229 234 243 247 248 252 256 258 264 268 271 272 275 281 284 287 286 291 299 299 298 300 306 307 310 309 315 305 297 293 289 285 281 274 270 267 264 258
218 226 213 212 217 224 232 244 248 252 256 262 264 265 265 270 276 279 279 282 287 296 297 296 296 300 303 307 307 310 311 306 302 299 297 294 291 289 285 278 272 268 267
248 252 233 219 222 226 232 241 252 254 258 260 263 263 269 273 276 281 283 286 290 292 294 294 297 300 305 311 312 311 309 302 300 301 303 303 300 296 293 287 280 274 270
222 216 226 235 245 249 242 242 238 251 259 263 268 273 274 277 276 277 284 285 288 290 295 299 304 303 303 306 309 307 300 299 302 303 303 303 302 299 293 288 285 281 277
225 222 227 236 240 246 249 254 258 260 263 266 267 267 269 272 277 283 285 286 290 296 298 299 301 306 305 304 302 298 298 301 302 302 303 302 301 304 306 303 297 289 281
221 227 231 238 240 248 254 257 260 259 261 263 263 266 271 277 280 285 289 288 290 293 294 299 302 307 301 296 295 298 301 303 304 305 304 304 307 308 309 307 302 300 297
235 236 235 236 240 245 248 251 254 258 261 262 267 271 273 277 282 285 286 289 294 297 299 302 303 300 294 295 300 302 305 306 307 308 310 312 312 312 312 310 307 303 300
238 242 243 245 251 253 256 261 261 260 263 268 268 274 279 279 283 285 286 290 298 298 301 297 290 291 295 301 306 310 312 317 321 325 328 327 324 319 313 310 308 304 302
241 246 248 251 254 258 258 261 263 262 265 267 271 272 276 280 282 291 296 296 297 298 290 289 291 296 300 305 307 310 314 317 320 322 323 325 328 327 321 315 311 311 308
Height
10914 10914 10912 10909 10914 10916 10917 10911 10910 10915 10913 10914 10917 10919 10922 10923 10924 10926 10927 10930 10934 10934 10935 10935 10936 10938 10940 10942 10941 10940 10940 10941 10943 10941 10939 10940 10940 10939 10939 10940 10942 10943 10945
10904 10907 10913 10913 10913 10909 10906 10906 10908 10911 10915 10916 10910 10912 10912 10916 10920 10922 10922 10922 10925 10925 10927 10928 10929 10930 10930 10931 10930 10931 10930 10930 10932 10931 10930 10930 10929 10928 10928 10929 10930 10932 10934
10895 10902 10900 10899 10898 10895 10898 10902 10904 10907 10912 10910 10912 10907 10905 10905 10908 10912 10915 10915 10915 10916 10917 10917 10918 10918 10919 10918 10918 10918 10920 10919 10919 10918 10918 10917 10917 10918 10921 10921 10919 10919 10922
10882 10887 10896 10893 10887 10884 10888 10894 10897 10900 10904 10909 10906 10902 10897 10895 10897 10900 10903 10905 10906 10907 10907 10907 10907 10907 10907 10907 10908 10906 10907 10909 10909 10906 10906 10906 10905 10907 10911 10911 10909 10911 10912
10863 10868 10883 10888 10881 10877 10874 10876 10881 10888 10893 10897 10894 10889 10888 10888 10889 10891 10892 10894 10893 10893 10896 10897 10896 10897 10897 10896 10895 10894 10893 10897 10897 10896 10893 10894 10896 10898 10899 10900 10902 10902 10902
10849 10850 10863 10873 10870 10862 10858 10856 10861 10864 10867 10871 10871 10874 10874 10876 10879 10882 10882 10882 10881 10879 10880 10881 10883 10884 10885 10882 10881 10882 10882 10883 10884 10885 10882 10883 10885 10885 10885 10886 10887 10888 10888
10834 10835 10844 10855 10852 10846 10844 10845 10845 10847 10844 10846 10851 10857 10859 10862 10867 10871 10871 10868 10868 10867 10865 10865 10867 10868 10868 10869 10866 10866 10869 10871 10870 10870 10870 10870 10870 10871 10871 10872 10873 10872 10871
10815 10816 10820 10828 10830 10826 10823 10831 10831 10829 10829 10834 10837 10843 10846 10850 10856 10860 10859 10856 10854 10852 10851 10849 10847 10849 10851 10852 10851 10849 10848 10851 10853 10855 10856 10856 10857 10857 10856 10855 10856 10853 10851
10795 10797 10800 10805 10809 10808 10807 10814 10816 10817 10818 10819 10825 10830 10834 10839 10841 10846 10841 10840 10840 10838 10838 10836 10834 10831 10831 10832 10832 10831 10831 10831 10831 10834 10834 10835 10837 10836 10837 10835 10834 10833 10831
10773 10776 10777 10780 10784 10786 10793 10799 10801 10801 10801 10808 10815 10818 10821 10824 10825 10823 10824 10827 10829 10827 10826 10823 10818 10817 10813 10810 10811 10812 10812 10809 10808 10808 10808 10809 10809 10810 10808 10808 10807 10806 10807
10758 10759 10759 10759 10766 10768 10774 10781 10785 10789 10792 10796 10798 10800 10803 10806 10805 10806 10807 10811 10812 10813 10813 10811 10804 10796 10792 10793 10792 10793 10794 10794 10791 10788 10787 10785 10784 10782 10780 10780 10780 10779 10779
10736 10741 10744 10745 10749 10752 10759 10767 10769 10774 10775 10779 10781 10784 10787 10787 10789 10790 10793 10795 10795 10795 10798 10796 10789 10782 10776 10774 10775 10777 10776 10775 10776 10775 10773 10767 10762 10757 10753 10750 10749 10748 10746
10716 10717 10723 10726 10731 10735 10741 10748 10749 10754 10758 10762 10763 10767 10771 10772 10774 10775 10775 10777 10777 10779 10782 10782 10777 10772 10772 10766 10763 10761 10761 10761 10758 10755 10747 10737 10729 10722 10720 10717 10716 10717 10716
10682 10690 10699 10708 10713 10719 10723 10727 10731 10735 10738 10745 10749 10752 10755 10756 10758 10759 10760 10760 10760 10761 10764 10759 10756 10753 10753 10749 10747 10744 10741 10738 10731 10727 10716 10705 10697 10688 10683 10681 10678 10678 10677
10649 10661 10677 10688 10703 10701 10707 10711 10714 10719 10724 10727 10733 10738 10739 10738 10740 10742 10745 10742 10742 10744 10744 10741 10738 10734 10733 10730 10726 10721 10713 10705 10697 10685 10672 10663 10655 10649 10645 10645 10642 10641 10642
10631 10645 10661 10680 10682 10686 10697 10698 10704 10705 10707 10712 10717 10721 10722 10722 10722 10725 10725 10727 10726 10725 10719 10717 10718 10713 10709 10700 10690 10686 10678 10668 10659 10645 10631 10620 10613 10607 10603 10600 10603 10604 10604
10625 10637 10648 10660 10671 10678 10685 10687 10689 10690 10691 10698 10702 10703 10706 10709 10707 10704 10705 10705 10703 10701 10700 10692 10693 10688 10680 10673 10664 10654 10643 10629 10611 10600 10586 10574 10564 10556 10552 10550 10551 10556 10561
10623 10626 10634 10645 10654 10661 10668 10670 10674 10675 10675 10682 10685 10688 10690 10688 10686 10686 10685 10684 10682 10676 10674 10669 10665 10658 10650 10641 10629 10617 10605 10590 10570 10558 10548 10536 10528 10522 10520 10517 10515 10515 10518
10624 10626 10627 10630 10636 10645 10650 10652 10657 10660 10662 10665 10666 10666 10667 10668 10669 10669 10667 10663 10661 10655 10649 10645 10640 10632 10621 10612 10600 10589 10571 10553 10540 10529 10519 10511 10502 10494 10489 10486 10486 10485 10486
10618 10620 10622 10626 10628 10632 10636 10638 10639 10645 10647 10648 10651 10649 10650 10652 10649 10645 10645 10642 10641 10636 10631 10626 10619 10611 10600 10588 10573 10559 10547 10533 10519 10507 10497 10489 10481 10475 10470 10467 10465 10463 10462
10612 10615 10615 10616 10617 10619 10622 10625 10626 10623 10629 10633 10635 10635 10633 10633 10633 10630 10630 10625 10621 10616 10609 10600 10593 10584 10573 10561 10550 10534 10519 10509 10499 10489 10481 10475 10468 10461 10456 10452 10449 10447 10444
10601 10603 10604 10603 10606 10608 10611 10613 10615 10615 10617 10620 10618 10616 10614 10614 10613 10611 10606 10604 10599 10594 10586 10579 10569 10559 10547 10536 10521 10511 10501 10492 10485 10475 10468 10463 10455 10448 10442 10438 10435 10433 10432
10585 10588 10589 10591 10594 10597 10599 10600 10602 10603 10602 10599 10596 10596 10595 10593 10591 10590 10587 10583 10579 10572 10563 10554 10542 10533 10520 10507 10502 10493 10485 10479 10473 10465 10458 10451 10443 10437 10431 10428 10424 10421 10418
10572 10573 10573 10575 10576 10577 10579 10580 10581 10582 10580 10580 10579 10576 10574 10573 10571 10571 10570 10565 10558 10550 10540 10528 10518 10508 10499 10492 10484 10478 10473 10469 10463 10456 10448 10441 10434 10428 10422 10418 10414 10411 10407
10556 10558 10559 10560 10562 10565 10567 10566 10565 10565 10565 10563 10559 10560 10559 10557 10556 10553 10549 10545 10538 10528 10516 10506 10495 10490 10483 10477 10471 10466 10462 10457 10451 10443 10436 10430 10425 10419 10413 10409 10404 10400 10396
10542 10543 10545 10547 10547 10548 10548 10547 10546 10544 10541 10540 10541 10539 10538 10538 10535 10534 10525 10519 10511 10504 10496 10489 10482 10474 10471 10468 10464 10459 10453 10447 10441 10434 10428 10423 10417 10411 10404 10398 10393 10389 10384